Time,TemperatureF,DewpointF,PressureIn,WindDirection,WindDirectionDegrees,WindSpeedMPH,WindSpeedGustMPH,Humidity,HourlyPrecipIn,Conditions,Clouds,dailyrainin,SoftwareType,DateUTC
2013-03-15 00:02:00,53.0,46.0,30.15,SSE,158,0.0,0.0,76,0.00,,,0.00,,2013-03-15 07:02:00,
2013-03-15 00:12:00,53.0,46.0,30.15,SSE,158,0.0,0.0,76,0.00,,,0.00,,2013-03-15 07:12:00,
2013-03-15 00:21:00,53.0,46.0,30.14,SW,217,0.0,0.0,76,0.00,,,0.00,,2013-03-15 07:21:00,
2013-03-15 00:32:00,54.0,46.0,30.15,SSW,203,0.0,0.0,75,0.00,,,0.00,,2013-03-15 07:32:00,
2013-03-15 00:42:00,54.0,46.0,30.15,SSW,203,0.0,0.0,75,0.00,,,0.00,,2013-03-15 07:42:00,
2013-03-15 00:52:00,54.0,46.0,30.15,SSW,203,0.0,0.0,74,0.00,,,0.00,,2013-03-15 07:52:00,
2013-03-15 01:02:00,54.0,46.0,30.15,South,176,0.0,0.0,74,0.00,,,0.00,,2013-03-15 08:02:00,
2013-03-15 01:12:00,54.0,46.0,30.15,South,176,0.0,0.0,74,0.00,,,0.00,,2013-03-15 08:12:00,
2013-03-15 01:22:00,54.0,46.0,30.15,South,179,0.0,0.0,74,0.00,,,0.00,,2013-03-15 08:22:00,
2013-03-15 01:32:00,54.0,46.0,30.15,SSW,199,0.0,0.0,75,0.00,,,0.00,,2013-03-15 08:32:00,
2013-03-15 01:41:00,54.0,46.0,30.15,SSW,199,0.0,0.0,75,0.00,,,0.00,,2013-03-15 08:41:00,
2013-03-15 01:52:00,54.0,46.0,30.15,SSW,199,0.0,0.0,75,0.00,,,0.00,,2013-03-15 08:52:00,
2013-03-15 02:02:00,54.0,47.0,30.15,South,174,0.0,0.0,76,0.00,,,0.00,,2013-03-15 09:02:00,
2013-03-15 02:11:00,54.0,47.0,30.15,South,174,0.0,0.0,76,0.00,,,0.00,,2013-03-15 09:11:00,
2013-03-15 02:22:00,54.0,47.0,30.15,South,174,0.0,0.0,76,0.00,,,0.00,,2013-03-15 09:22:00,
2013-03-15 02:33:00,54.0,47.0,30.15,South,174,0.0,0.0,77,0.00,,,0.00,,2013-03-15 09:33:00,
2013-03-15 02:42:00,54.0,47.0,30.15,South,174,0.0,0.0,77,0.00,,,0.00,,2013-03-15 09:42:00,
2013-03-15 02:53:00,54.0,47.0,30.15,South,174,0.0,0.0,78,0.00,,,0.00,,2013-03-15 09:53:00,
2013-03-15 03:02:00,53.0,46.0,30.15,SSW,195,0.0,0.0,78,0.00,,,0.00,,2013-03-15 10:02:00,
2013-03-15 03:12:00,53.0,46.0,30.15,SSW,195,0.0,0.0,78,0.00,,,0.00,,2013-03-15 10:12:00,
2013-03-15 03:23:00,53.0,46.0,30.15,South,177,0.0,0.0,78,0.00,,,0.00,,2013-03-15 10:23:00,
2013-03-15 03:32:00,53.0,47.0,30.15,SE,134,0.0,0.0,79,0.00,,,0.00,,2013-03-15 10:32:00,
2013-03-15 03:42:00,53.0,47.0,30.15,SE,134,0.0,0.0,79,0.00,,,0.00,,2013-03-15 10:42:00,
2013-03-15 03:52:00,53.0,47.0,30.15,South,169,0.0,0.0,80,0.00,,,0.00,,2013-03-15 10:52:00,
2013-03-15 04:02:00,53.0,47.0,30.14,ESE,114,0.0,0.0,81,0.00,,,0.00,,2013-03-15 11:02:00,
2013-03-15 04:12:00,53.0,47.0,30.14,ESE,114,0.0,0.0,81,0.00,,,0.00,,2013-03-15 11:12:00,
2013-03-15 04:22:00,53.0,48.0,30.13,ESE,113,0.0,0.0,82,0.00,,,0.00,,2013-03-15 11:22:00,
2013-03-15 04:32:00,52.0,47.0,30.13,SSE,153,0.0,0.0,83,0.00,,,0.00,,2013-03-15 11:32:00,
2013-03-15 04:41:00,52.0,47.0,30.13,SSE,153,0.0,0.0,83,0.00,,,0.00,,2013-03-15 11:41:00,
2013-03-15 04:52:00,52.0,47.0,30.13,SSW,204,0.0,0.0,83,0.00,,,0.00,,2013-03-15 11:52:00,
2013-03-15 05:02:00,53.0,48.0,30.13,SSW,204,0.0,0.0,83,0.00,,,0.00,,2013-03-15 12:02:00,
2013-03-15 05:12:00,53.0,48.0,30.13,SSW,204,0.0,0.0,83,0.00,,,0.00,,2013-03-15 12:12:00,
2013-03-15 05:22:00,53.0,48.0,30.13,South,180,0.0,0.0,83,0.00,,,0.00,,2013-03-15 12:22:00,
2013-03-15 05:32:00,53.0,48.0,30.14,SSW,193,0.0,0.0,82,0.00,,,0.00,,2013-03-15 12:32:00,
2013-03-15 05:42:00,53.0,48.0,30.14,SSW,193,0.0,0.0,82,0.00,,,0.00,,2013-03-15 12:42:00,
2013-03-15 05:52:00,53.0,48.0,30.14,SSW,197,0.0,0.0,82,0.00,,,0.00,,2013-03-15 12:52:00,
2013-03-15 06:02:00,53.0,48.0,30.15,South,183,0.0,0.0,83,0.00,,,0.00,,2013-03-15 13:02:00,
2013-03-15 06:12:00,53.0,48.0,30.15,South,183,0.0,0.0,83,0.00,,,0.00,,2013-03-15 13:12:00,
2013-03-15 06:22:00,53.0,48.0,30.15,South,184,0.0,0.0,83,0.00,,,0.00,,2013-03-15 13:22:00,
2013-03-15 06:32:00,52.0,47.0,30.15,South,183,0.0,0.0,83,0.00,,,0.00,,2013-03-15 13:32:00,
2013-03-15 06:41:00,52.0,47.0,30.15,South,183,0.0,0.0,83,0.00,,,0.00,,2013-03-15 13:41:00,
2013-03-15 06:52:00,52.0,47.0,30.15,South,183,0.0,0.0,84,0.00,,,0.00,,2013-03-15 13:52:00,
2013-03-15 07:02:00,52.0,47.0,30.15,SSW,193,0.0,0.0,84,0.00,,,0.00,,2013-03-15 14:02:00,
2013-03-15 07:11:00,52.0,47.0,30.15,SSW,193,0.0,0.0,84,0.00,,,0.00,,2013-03-15 14:11:00,
2013-03-15 07:22:00,52.0,47.0,30.15,SSW,193,0.0,0.0,84,0.00,,,0.00,,2013-03-15 14:22:00,
2013-03-15 07:32:00,52.0,47.0,30.15,SSW,193,0.0,0.0,84,0.00,,,0.00,,2013-03-15 14:32:00,
2013-03-15 07:42:00,52.0,47.0,30.15,SSW,193,0.0,0.0,84,0.00,,,0.00,,2013-03-15 14:42:00,
2013-03-15 07:52:00,52.0,47.0,30.15,SSW,193,0.0,0.0,84,0.00,,,0.00,,2013-03-15 14:52:00,
2013-03-15 08:02:00,52.0,47.0,30.15,SSW,193,0.0,0.0,84,0.00,,,0.00,,2013-03-15 15:02:00,
2013-03-15 08:12:00,52.0,47.0,30.15,SSW,193,0.0,0.0,84,0.00,,,0.00,,2013-03-15 15:12:00,
2013-03-15 08:22:00,51.0,47.0,30.15,South,191,0.0,0.0,85,0.00,,,0.00,,2013-03-15 15:22:00,
2013-03-15 08:32:00,51.0,47.0,30.15,South,191,0.0,0.0,85,0.00,,,0.00,,2013-03-15 15:32:00,
2013-03-15 08:42:00,51.0,47.0,30.15,South,191,0.0,0.0,85,0.00,,,0.00,,2013-03-15 15:42:00,
2013-03-15 08:52:00,51.0,47.0,30.15,South,182,0.0,0.0,85,0.00,,,0.00,,2013-03-15 15:52:00,
2013-03-15 09:02:00,52.0,48.0,30.15,South,182,0.0,0.0,86,0.00,,,0.00,,2013-03-15 16:02:00,
2013-03-15 09:12:00,53.0,49.0,30.15,East,81,0.0,0.0,85,0.00,,,0.00,,2013-03-15 16:12:00,
2013-03-15 09:22:00,53.0,49.0,30.15,East,81,0.0,0.0,85,0.00,,,0.00,,2013-03-15 16:22:00,
2013-03-15 09:32:00,53.0,48.0,30.15,ESE,115,0.0,0.0,84,0.00,,,0.00,,2013-03-15 16:32:00,
2013-03-15 09:42:00,53.0,48.0,30.15,ESE,115,0.0,0.0,84,0.00,,,0.00,,2013-03-15 16:42:00,
2013-03-15 09:52:00,54.0,49.0,30.16,ENE,77,0.0,0.0,83,0.00,,,0.00,,2013-03-15 16:52:00,
2013-03-15 10:02:00,54.0,48.0,30.16,ESE,115,0.0,0.0,81,0.00,,,0.00,,2013-03-15 17:02:00,
2013-03-15 10:12:00,54.0,48.0,30.16,ESE,115,0.0,0.0,81,0.00,,,0.00,,2013-03-15 17:12:00,
2013-03-15 10:22:00,55.0,49.0,30.16,ESE,115,0.0,0.0,79,0.00,,,0.00,,2013-03-15 17:22:00,
2013-03-15 10:32:00,56.0,48.0,30.17,SSW,207,0.0,0.0,75,0.00,,,0.00,,2013-03-15 17:32:00,
2013-03-15 10:42:00,56.0,48.0,30.17,SSW,207,0.0,0.0,75,0.00,,,0.00,,2013-03-15 17:42:00,
2013-03-15 10:52:00,56.0,47.0,30.16,SSE,153,0.0,0.0,73,0.00,,,0.00,,2013-03-15 17:52:00,
2013-03-15 11:02:00,56.0,47.0,30.16,SW,219,0.0,0.0,73,0.00,,,0.00,,2013-03-15 18:02:00,
2013-03-15 11:12:00,56.0,47.0,30.16,SW,219,0.0,0.0,73,0.00,,,0.00,,2013-03-15 18:12:00,
2013-03-15 11:32:00,58.0,47.0,30.16,SSW,204,0.0,0.0,68,0.00,,,0.00,,2013-03-15 18:32:00,
2013-03-15 11:42:00,58.0,47.0,30.16,SSW,204,0.0,0.0,68,0.00,,,0.00,,2013-03-15 18:42:00,
2013-03-15 11:52:00,58.0,47.0,30.16,West,262,0.0,0.0,68,0.00,,,0.00,,2013-03-15 18:52:00,
2013-03-15 12:02:00,58.0,48.0,30.16,SW,219,0.0,0.0,69,0.00,,,0.00,,2013-03-15 19:02:00,
2013-03-15 12:12:00,58.0,48.0,30.16,SW,219,0.0,0.0,69,0.00,,,0.00,,2013-03-15 19:12:00,
2013-03-15 12:22:00,58.0,48.0,30.16,WSW,254,0.0,0.0,69,0.00,,,0.00,,2013-03-15 19:22:00,
2013-03-15 12:32:00,58.0,47.0,30.16,SW,229,0.0,0.0,68,0.00,,,0.00,,2013-03-15 19:32:00,
2013-03-15 12:42:00,58.0,47.0,30.16,SW,229,0.0,0.0,68,0.00,,,0.00,,2013-03-15 19:42:00,
2013-03-15 12:52:00,58.0,47.0,30.16,West,264,0.0,0.0,67,0.00,,,0.00,,2013-03-15 19:52:00,
2013-03-15 13:02:00,58.0,47.0,30.16,SW,225,0.0,0.0,66,0.00,,,0.00,,2013-03-15 20:02:00,
2013-03-15 13:12:00,58.0,47.0,30.16,SW,225,0.0,0.0,66,0.00,,,0.00,,2013-03-15 20:12:00,
2013-03-15 13:22:00,58.0,46.0,30.16,SW,228,0.0,0.0,65,0.00,,,0.00,,2013-03-15 20:22:00,
2013-03-15 13:31:00,59.0,46.0,30.16,SW,224,0.0,0.0,63,0.00,,,0.00,,2013-03-15 20:31:00,
2013-03-15 13:42:00,59.0,46.0,30.16,SW,224,0.0,0.0,63,0.00,,,0.00,,2013-03-15 20:42:00,
2013-03-15 13:51:00,59.0,46.0,30.15,SW,228,0.0,0.0,63,0.00,,,0.00,,2013-03-15 20:51:00,
2013-03-15 14:02:00,60.0,47.0,30.15,NW,323,0.0,0.0,62,0.00,,,0.00,,2013-03-15 21:02:00,
2013-03-15 14:11:00,60.0,47.0,30.15,NW,323,0.0,0.0,62,0.00,,,0.00,,2013-03-15 21:11:00,
2013-03-15 14:21:00,60.0,47.0,30.14,WSW,250,0.0,0.0,63,0.00,,,0.00,,2013-03-15 21:21:00,
2013-03-15 14:32:00,61.0,47.0,30.14,West,274,0.0,0.0,61,0.00,,,0.00,,2013-03-15 21:32:00,
2013-03-15 14:42:00,61.0,47.0,30.14,West,274,0.0,0.0,61,0.00,,,0.00,,2013-03-15 21:42:00,
2013-03-15 14:52:00,61.0,47.0,30.14,West,273,0.0,0.0,61,0.00,,,0.00,,2013-03-15 21:52:00,
2013-03-15 15:03:00,61.0,47.0,30.13,WNW,292,0.0,0.0,61,0.00,,,0.00,,2013-03-15 22:03:00,
2013-03-15 15:12:00,61.0,47.0,30.13,WNW,292,0.0,0.0,61,0.00,,,0.00,,2013-03-15 22:12:00,
2013-03-15 15:22:00,61.0,47.0,30.13,SW,236,0.0,0.0,61,0.00,,,0.00,,2013-03-15 22:22:00,
2013-03-15 15:32:00,62.0,48.0,30.12,NW,307,0.0,0.0,60,0.00,,,0.00,,2013-03-15 22:32:00,
2013-03-15 15:42:00,62.0,48.0,30.12,NW,307,0.0,0.0,60,0.00,,,0.00,,2013-03-15 22:42:00,
2013-03-15 15:52:00,62.0,47.0,30.11,NNW,340,0.0,0.0,57,0.00,,,0.00,,2013-03-15 22:52:00,
2013-03-15 16:02:00,63.0,47.0,30.11,SW,230,0.0,0.0,55,0.00,,,0.00,,2013-03-15 23:02:00,
2013-03-15 16:12:00,63.0,47.0,30.11,SW,230,0.0,0.0,55,0.00,,,0.00,,2013-03-15 23:12:00,
2013-03-15 16:22:00,63.0,47.0,30.11,West,271,0.0,0.0,55,0.00,,,0.00,,2013-03-15 23:22:00,
2013-03-15 16:32:00,64.0,44.0,30.11,WNW,291,0.0,0.0,49,0.00,,,0.00,,2013-03-15 23:32:00,
2013-03-15 16:42:00,64.0,44.0,30.11,WNW,291,0.0,0.0,49,0.00,,,0.00,,2013-03-15 23:42:00,
2013-03-15 16:52:00,64.0,44.0,30.11,West,266,0.0,0.0,49,0.00,,,0.00,,2013-03-15 23:52:00,
2013-03-15 17:02:00,63.0,45.0,30.11,NNW,330,0.0,0.0,51,0.00,,,0.00,,2013-03-16 00:02:00,
2013-03-15 17:12:00,63.0,45.0,30.11,NNW,330,0.0,0.0,51,0.00,,,0.00,,2013-03-16 00:12:00,
2013-03-15 17:22:00,63.0,44.0,30.10,North,2,0.0,0.0,49,0.00,,,0.00,,2013-03-16 00:22:00,
2013-03-15 17:32:00,63.0,44.0,30.10,WNW,293,0.0,0.0,50,0.00,,,0.00,,2013-03-16 00:32:00,
2013-03-15 17:42:00,63.0,44.0,30.10,WNW,293,0.0,0.0,50,0.00,,,0.00,,2013-03-16 00:42:00,
2013-03-15 17:52:00,64.0,44.0,30.10,WNW,295,0.0,0.0,49,0.00,,,0.00,,2013-03-16 00:52:00,
2013-03-15 18:02:00,64.0,44.0,30.10,NW,309,0.0,0.0,49,0.00,,,0.00,,2013-03-16 01:02:00,
2013-03-15 18:12:00,64.0,44.0,30.10,NW,309,0.0,0.0,49,0.00,,,0.00,,2013-03-16 01:12:00,
2013-03-15 18:21:00,63.0,44.0,30.10,NNW,329,0.0,0.0,49,0.00,,,0.00,,2013-03-16 01:21:00,
2013-03-15 18:32:00,63.0,45.0,30.10,West,264,0.0,0.0,52,0.00,,,0.00,,2013-03-16 01:32:00,
2013-03-15 18:42:00,63.0,45.0,30.10,West,264,0.0,0.0,52,0.00,,,0.00,,2013-03-16 01:42:00,
2013-03-15 18:52:00,62.0,44.0,30.09,SW,235,0.0,0.0,52,0.00,,,0.00,,2013-03-16 01:52:00,
2013-03-15 19:02:00,62.0,45.0,30.09,WSW,238,0.0,0.0,54,0.00,,,0.00,,2013-03-16 02:02:00,
2013-03-15 19:11:00,62.0,45.0,30.09,WSW,238,0.0,0.0,54,0.00,,,0.00,,2013-03-16 02:11:00,
2013-03-15 19:22:00,62.0,45.0,30.09,NW,322,0.0,0.0,54,0.00,,,0.00,,2013-03-16 02:22:00,
2013-03-15 19:32:00,60.0,44.0,30.09,NW,306,0.0,0.0,55,0.00,,,0.00,,2013-03-16 02:32:00,
2013-03-15 19:42:00,60.0,44.0,30.09,NW,306,0.0,0.0,55,0.00,,,0.00,,2013-03-16 02:42:00,
2013-03-15 19:52:00,60.0,45.0,30.09,NW,323,0.0,0.0,57,0.00,,,0.00,,2013-03-16 02:52:00,
2013-03-15 20:02:00,58.0,45.0,30.10,NW,308,0.0,0.0,62,0.00,,,0.00,,2013-03-16 03:02:00,
2013-03-15 20:11:00,58.0,45.0,30.10,NW,308,0.0,0.0,62,0.00,,,0.00,,2013-03-16 03:11:00,
2013-03-15 20:21:00,58.0,46.0,30.10,NW,324,0.0,0.0,64,0.00,,,0.00,,2013-03-16 03:21:00,
2013-03-15 20:32:00,57.0,46.0,30.10,West,259,0.0,0.0,66,0.00,,,0.00,,2013-03-16 03:32:00,
2013-03-15 20:42:00,57.0,46.0,30.10,West,259,0.0,0.0,66,0.00,,,0.00,,2013-03-16 03:42:00,
2013-03-15 20:52:00,57.0,47.0,30.10,West,259,0.0,0.0,68,0.00,,,0.00,,2013-03-16 03:52:00,
2013-03-15 21:02:00,56.0,46.0,30.10,WNW,295,0.0,0.0,70,0.00,,,0.00,,2013-03-16 04:02:00,
2013-03-15 21:12:00,56.0,46.0,30.10,WNW,295,0.0,0.0,70,0.00,,,0.00,,2013-03-16 04:12:00,
2013-03-15 21:22:00,55.0,46.0,30.11,NW,307,0.0,0.0,72,0.00,,,0.00,,2013-03-16 04:22:00,
2013-03-15 21:32:00,54.0,46.0,30.11,WNW,290,0.0,0.0,75,0.00,,,0.00,,2013-03-16 04:32:00,
2013-03-15 21:42:00,54.0,46.0,30.11,WNW,290,0.0,0.0,75,0.00,,,0.00,,2013-03-16 04:42:00,
2013-03-15 21:52:00,54.0,47.0,30.11,NW,310,0.0,0.0,76,0.00,,,0.00,,2013-03-16 04:52:00,
2013-03-15 22:02:00,53.0,46.0,30.12,WNW,293,0.0,0.0,77,0.00,,,0.00,,2013-03-16 05:02:00,
2013-03-15 22:12:00,53.0,46.0,30.12,WNW,293,0.0,0.0,77,0.00,,,0.00,,2013-03-16 05:12:00,
2013-03-15 22:21:00,53.0,46.0,30.12,WNW,293,0.0,0.0,78,0.00,,,0.00,,2013-03-16 05:21:00,
2013-03-15 22:32:00,53.0,46.0,30.12,WSW,240,0.0,0.0,78,0.00,,,0.00,,2013-03-16 05:32:00,
2013-03-15 22:42:00,53.0,46.0,30.12,WSW,240,0.0,0.0,78,0.00,,,0.00,,2013-03-16 05:42:00,
2013-03-15 22:52:00,53.0,47.0,30.12,WSW,240,0.0,0.0,79,0.00,,,0.00,,2013-03-16 05:52:00,
2013-03-15 23:02:00,52.0,46.0,30.12,SW,217,0.0,0.0,80,0.00,,,0.00,,2013-03-16 06:02:00,
2013-03-15 23:12:00,52.0,46.0,30.12,SW,217,0.0,0.0,80,0.00,,,0.00,,2013-03-16 06:12:00,
2013-03-15 23:21:00,52.0,46.0,30.12,SW,217,0.0,0.0,80,0.00,,,0.00,,2013-03-16 06:21:00,
2013-03-15 23:32:00,52.0,46.0,30.11,SW,217,0.0,0.0,80,0.00,,,0.00,,2013-03-16 06:32:00,
2013-03-15 23:42:00,52.0,46.0,30.11,SW,217,0.0,0.0,80,0.00,,,0.00,,2013-03-16 06:42:00,